Location: Wilhelmshaven
(53.5279°N, 8.1063°E)
Time: 14:28:31
(UTC+02:00)

ISS - Pass Details

Date: 13 July 2022
Orbit: 412 x 420 km, 51.6° (Epoch: 14 August)

Event Time Altitude Azimuth Distance (km) Brightness Sun altitude
Rises 01:37:14 0° 261° (W) 2,355 -0.1 -14.6°
Reaches altitude 10° 01:39:20 10° 258° (WSW) 1,494 -1.1 -14.6°
Maximum altitude 01:42:39 63° 177° (S) 471 -3.8 -14.6°
Drops below altitude 10° 01:46:00 10° 95° (E) 1,501 -1.0 -14.6°
Sets 01:48:06 0° 93° (E) 2,367 0.1 -14.5°
